STARLINK-36570, 67640

Orbit data source: Space-Track

STARLINK-36570, 67640 is a payload satellite owned by SpaceX/Seattle (US) in LEO that was launched on Fri, 30 Jan 2026 UTC via an FALCON 9 launch vehicle from the Air Force Eastern Test Range (AFETR). Payload-class satellites include a variety of spacecraft equipped with specific instruments for various scientific and technological missions. These include communications satellites like Starlink; space stations such as the ISS; scientific satellites like the Hubble; Earth observation satellites from companies like Planet Labs, Umbra, and HawkEye 360; GPS; miniature CubeSats for education and research; and military/defense satellites.

Loading next visibility...
Identifier
67640, 2026-020Z
Orbit
LEO
Country
Flag of USUS
Related business
Manufacturer
SpaceX/Seattle
Mission
Operational spacecraft
Bus & Motor
STARLINK V2MO, Unknown motor
Mass
575 kg wet, ~530 kg dry
Launch date (UTC)
2026-01-30 (1 week ago)
Launch vehicle
FALCON 9
Launch site
Air Force Eastern Test Range (AFETR)
Object type
Payload
Rocket body
Debris
Shape & HBR
Unknown
Radar Cross Section
RCS unknown

Expand to show TLE details & history
Last TLE update: 5 hours ago

TLE from 5 hours ago
0 STARLINK-36570
1 67640U 26020Z   26037.83335647 -.01897776  98728-3 -53265-2 0  9997
2 67640  42.9999 329.8859 0001745 262.5780 113.7116 15.92790585  2438
Epoch: 2026-02-06T20:00Z
TLE epoch observation values (Epoch: 2026-02-06T20:00:01.999Z)
Latitude
11.05023°
Longitude
-95.06887°
Altitude
293.951 km
Speed
7.734 km/s
True Right ascension
22h 47m 37s
True Declination
10° 58' 52"
Sunlit
Object was in daylight at epoch
Visualization orbit readout
Latitude
Unknown
Longitude
Unknown
Altitude
Unknown
Speed
Unknown
Apparent Right ascension
Unknown
Apparent Declination
Unknown
Sunlit
N/A
Visualization observer readout
Local Sidereal Time
02:45:14
Azimuth
Unknown
Elevation
Unknown
Doppler factor
Unknown
Orbital elements
Apogee altitude
297.642 km
Perigee altitude
295.313 km
Semi-major axis
6,674.615 km
Eccentricity
0.00017
Inclination
42.9999°
RAAN
329.8859°
Arg. of periapsis
262.578°
True anomaly
113.72991°
Mean anomaly
113.7116°
Eccentric anomaly
113.72075°
Mean motion
3.98019 °/min
Orbital period
90.45 mins
BSTAR
-0.0053265
Loading maneuver chart data...
Computing Atmospheric mass density...
Loading historical data...
Loading historical data...
Loading historical data...
Loading historical data...
Loading historical data...
Loading historical data...
Loading historical data...

Documentation

Showing up to 5 results
|